Powrót do katalogu

ONEWEB-0124

AktywnyŁącznośćPO
NORAD 47270·PAYLOAD·🇬🇧 United Kingdom

Wystrzelony Dec 18, 2020 z Vostochny Cosmodrome

Loading…

Następne Przeloty (najbliższe 24 godziny)

TLE

ŚwieżeSource: CelesTrak SupGP

Epoka: Sep 14, 2026, 22:47 UTC

1 47270C 20100N   26257.94944861 -.00001059  00000+0 -29479-2 0  2576
2 47270  87.8972 332.8456 0002019  94.9256   7.4759 13.12440361    19

Śledź ONEWEB-0124 w czasie rzeczywistym z AllMySat

Download on the App Store